Barcelona, Spain

3:20 AM CET en Noviembre 21, 2017 (GMT +0100)
El Prat

Tiempo Historia de LEBL - Noviembre, 2017

Change the Weather History Date:

Miércoles, Noviembre 15, 2017

  Actual Average Record
Temperature  
Temperatura media 51 ° F -  
Temperatura máxima 62 ° F 58 ° F 68 ° F (2015)
Temperatura mínima 40 ° F 44 ° F 40 ° F (2017)
Degree Days  
Grados día de calefacción 14    
Growing Degree Days 1 (Base 50)    
Moisture  
Punto de rocío 33 ° F    
Average Humidity 53    
Maximum Humidity 76    
Minimum Humidity 18    
Precipitación  
Precipitación 0.00 pul 0.08 pul - ()
Presión al nivel del mar  
Presión al nivel del mar 30.10 pul    
Viento  
Velocidad del viento 10 mph ()    
Velocidad máxima del viento 20 mph    
Max Gust Speed 33 mph    
Visibilidad 13.0 Millas    
Eventos      
Averages and records for this station are not official NWS values.
T = Trace of Precipitation, MM = Missing Value Source: Averaged Metar Reports

Daily Weather History Graph

Daily Weather History Graph

Search for Another Location

Airport or City:

Trip Planner

Search our weather history database for the weather conditions in past years. The results will help you decide how hot, cold, wet, or windy it might be!

Date:

Astronomía

Nov. 15, 2017 Salida Puesta
Hora real 7:39 AM CET 5:32 PM CET
Crepúsculo civil 7:10 AM CET 6:01 PM CET
Crepúsculo náutico 6:36 AM CET 6:35 PM CET
Crepúsculo astronómico 6:04 AM CET 7:07 PM CET
Luna 4:22 AM CET (11/15) 4:22 PM CET (11/15)
Horas de luz 10h 51m
Horas de luz
9h 52m
Creciente menguante, 9% of the Moon is Illuminated
Nov 15
Creciente menguante
Nov 18
Nueva
Nov 26
Cuarto creciente
Dic 3
Luna llena
Dic 10
Cuarto menguante

Hourly Weather History & Observations

Hora (CET) Temp. Vientos helados Punto de rocío Humedad Presión Visibilidad Wind Dir Velocidad del viento Velocidad de ráfagas Precip Eventos Condiciones
12:00 AM 46 ° F - 30 ° F 42% 30.14 pul 14 mi Norte 11.5 mph - -  
12:00 AM 44.6 ° F 39.7 ° F 30.2 ° F 57% 30.12 pul - NNO 9.2 mph - N/A   Despejado
12:30 AM 44.6 ° F 38.4 ° F 30.2 ° F 57% 30.12 pul - NNO 12.7 mph - N/A   Despejado
1:00 AM 45 ° F - 30 ° F 44% 30.13 pul 16 mi Norte 12.7 mph - -   Despejado
1:00 AM 44.6 ° F 38.4 ° F 30.2 ° F 57% 30.12 pul - NNO 12.7 mph - N/A   Despejado
1:30 AM 42.8 ° F 35.8 ° F 30.2 ° F 61% 30.09 pul - NNO 13.8 mph - N/A   Despejado
2:00 AM 42.8 ° F 36.2 ° F 30.2 ° F 61% 30.09 pul - NNO 12.7 mph - N/A   Despejado
2:30 AM 42.8 ° F 35.4 ° F 30.2 ° F 61% 30.09 pul - NNO 15.0 mph - N/A   Despejado
3:00 AM 42 ° F - 29 ° F 49% 30.12 pul 17 mi Norte 15.0 mph - -  
3:00 AM 42.8 ° F 35.4 ° F 30.2 ° F 61% 30.09 pul - NNO 15.0 mph - N/A   Despejado
3:30 AM 41.0 ° F 32.8 ° F 28.4 ° F 61% 30.09 pul - NNO 16.1 mph - N/A   Despejado
4:00 AM 42 ° F - 29 ° F 49% 30.11 pul 16 mi Norte 12.7 mph - -   Despejado
4:00 AM 42.8 ° F 35.8 ° F 28.4 ° F 57% 30.09 pul - NNO 13.8 mph - N/A   Despejado
4:30 AM 41.0 ° F 32.8 ° F 28.4 ° F 61% 30.09 pul - NNO 16.1 mph - N/A   Despejado
5:00 AM 42 ° F - 29 ° F 49% 30.11 pul 17 mi Norte 13.8 mph - -  
5:00 AM 41.0 ° F 33.5 ° F 28.4 ° F 61% 30.09 pul - NNO 13.8 mph - N/A   Despejado
5:30 AM 41.0 ° F 34.7 ° F 28.4 ° F 61% 30.09 pul - NNO 10.4 mph - N/A   Despejado
6:00 AM 42 ° F - 29 ° F 50% 30.11 pul 14 mi NNO 8.1 mph - -  
6:00 AM 41.0 ° F 35.8 ° F 28.4 ° F 61% 30.09 pul - ONO 8.1 mph - N/A   Despejado
6:30 AM 41.0 ° F 33.5 ° F 28.4 ° F 61% 30.09 pul - NNO 13.8 mph - N/A   Despejado
7:00 AM 41 ° F - 29 ° F 51% 30.11 pul 19 mi Norte 11.5 mph - -   Despejado
7:00 AM 41.0 ° F 35.2 ° F 28.4 ° F 61% 30.09 pul - ONO 9.2 mph - N/A   Despejado
7:30 AM 42.8 ° F 35.1 ° F 30.2 ° F 61% 30.09 pul - NO 16.1 mph - N/A   Despejado
8:00 AM 42 ° F - 29 ° F 50% 30.12 pul 16 mi Norte 10.4 mph - -  
8:00 AM 41.0 ° F 33.1 ° F 28.4 ° F 61% 30.12 pul - NO 15.0 mph - N/A   Despejado
8:30 AM 41.0 ° F 33.5 ° F 28.4 ° F 61% 30.12 pul - NO 13.8 mph - N/A   Despejado
9:00 AM 43 ° F - 29 ° F 47% 30.12 pul 19 mi Norte 15.0 mph - -  
9:00 AM 42.8 ° F 34.3 ° F 28.4 ° F 57% 30.09 pul - NNO 19.6 mph 33.4 mph N/A   Despejado
9:30 AM 44.6 ° F 37.4 ° F 30.2 ° F 57% 30.12 pul - NNO 16.1 mph 27.6 mph N/A   Despejado
10:00 AM 48 ° F - 31 ° F 39% 30.13 pul 17 mi Norte 13.8 mph - -   Despejado
10:00 AM 46.4 ° F 40.7 ° F 30.2 ° F 53% 30.12 pul - NNO 12.7 mph - N/A   Despejado
10:30 AM 50.0 ° F - 32.0 ° F 50% 30.12 pul - NO 12.7 mph - N/A   Despejado
11:00 AM 52 ° F - 31 ° F 32% 30.14 pul 19 mi Norte 11.5 mph - -  
11:00 AM 51.8 ° F - 32.0 ° F 47% 30.12 pul - NO 11.5 mph 23.0 mph N/A   Despejado
11:30 AM 53.6 ° F - 32.0 ° F 44% 30.12 pul - NNO 11.5 mph - N/A   Despejado
12:00 PM 56 ° F - 30 ° F 25% 30.12 pul 14 mi Norte 11.5 mph - -  
12:30 PM 57.2 ° F - 30.2 ° F 36% 30.09 pul - NO 10.4 mph - N/A   Despejado
1:00 PM 59 ° F - 27 ° F 18% 30.09 pul 16 mi Norte 8.1 mph - -   Despejado
1:00 PM 57.2 ° F - 28.4 ° F 33% 30.09 pul - NNO 6.9 mph - N/A   Despejado
1:30 PM 59.0 ° F - 26.6 ° F 29% 30.06 pul - NO 2.3 mph - N/A   Despejado
2:00 PM 62 ° F - 34 ° F 23% 30.08 pul 15 mi SSO 4.6 mph - -  
2:00 PM 59.0 ° F - 32.0 ° F 36% 30.06 pul - Variable 2.3 mph - N/A   Despejado
2:30 PM 59.0 ° F - 39.2 ° F 48% 30.06 pul - SSO 8.1 mph - N/A   Despejado
3:00 PM 61 ° F - 37 ° F 29% 30.07 pul 19 mi SSO 6.9 mph - -  
3:00 PM 59.0 ° F - 37.4 ° F 45% 30.06 pul - SSO 6.9 mph - N/A   Despejado
3:30 PM 59.0 ° F - 35.6 ° F 42% 30.06 pul - SO 5.8 mph - N/A   Despejado
4:00 PM 59.0 ° F - 39.2 ° F 48% 30.06 pul - SSO 5.8 mph - N/A   Despejado
4:30 PM 59.0 ° F - 39.2 ° F 48% 30.06 pul - SSO 5.8 mph - N/A   Despejado
5:00 PM 59 ° F - 40 ° F 37% 30.06 pul 19 mi SO 4.6 mph - -  
5:00 PM 57.2 ° F - 39.2 ° F 51% 30.06 pul - SO 4.6 mph - N/A   Despejado
5:30 PM 55.4 ° F - 39.2 ° F 54% 30.06 pul - SO 3.5 mph - N/A   Despejado
6:00 PM 56 ° F - 40 ° F 44% 30.08 pul 19 mi Oeste 2.3 mph - -  
6:00 PM 55.4 ° F - 39.2 ° F 54% 30.06 pul - Variable 1.2 mph - N/A   Despejado
6:30 PM 55.4 ° F - 39.2 ° F 54% 30.06 pul 6.2 mi Variable 1.2 mph - N/A   Parcialmente nublado
7:00 PM 51.8 ° F - 39.2 ° F 62% 30.06 pul 6.2 mi NO 3.5 mph - N/A   Parcialmente nublado
7:30 PM 50.0 ° F - 41.0 ° F 71% 30.09 pul 6.2 mi NNO 4.6 mph - N/A   Parcialmente nublado
8:00 PM 50 ° F - 40 ° F 60% 30.11 pul 14 mi Norte 6.9 mph - -  
8:00 PM 50.0 ° F - 39.2 ° F 66% 30.09 pul 6.2 mi NNO 5.8 mph - N/A   Parcialmente nublado
8:30 PM 48.2 ° F - 39.2 ° F 71% 30.09 pul 6.2 mi NO 4.6 mph - N/A   Parcialmente nublado
9:00 PM 48 ° F - 40 ° F 64% 30.12 pul 11 mi Norte 6.9 mph - -  
9:00 PM 48.2 ° F - 39.2 ° F 71% 30.09 pul 6.2 mi NO 6.9 mph - N/A   Parcialmente nublado
9:30 PM 46.4 ° F 41.9 ° F 39.2 ° F 76% 30.12 pul 6.2 mi NNO 9.2 mph - N/A   Parcialmente nublado
10:00 PM 47 ° F - 37 ° F 58% 30.13 pul 11 mi Norte 9.2 mph - -   Nubes dispersas
10:00 PM 46.4 ° F 41.5 ° F 37.4 ° F 71% 30.12 pul 6.2 mi NNO 10.4 mph - N/A   Parcialmente nublado
10:30 PM 46.4 ° F 41.1 ° F 35.6 ° F 66% 30.12 pul 6.2 mi NNO 11.5 mph - N/A   Parcialmente nublado
11:00 PM 47 ° F - 37 ° F 57% 30.13 pul 13 mi Norte 9.2 mph - -  
11:00 PM 46.4 ° F 41.1 ° F 35.6 ° F 66% 30.12 pul - NNO 11.5 mph - N/A   Despejado
11:30 PM 46.4 ° F 41.1 ° F 35.6 ° F 66% 30.12 pul - NNO 11.5 mph - N/A   Despejado